EW1613 Weather Reports


time (UTC)temp
F
wind
direction
speed
knots
gust
knots
rain 1hr
in
rain 24hr
in
rain mn
in
humidity
%
barometer
mb
20260504160433 78 78 2.6 7.0 0.00 0.00 0.00 44 1015.2
20260504150940 80 166 5.2 8.7 0.00 0.00 0.00 43 1015.4
20260504150449 81 157 3.5 8.7 0.00 0.00 0.00 43 1015.3
20260504140954 80 98 1.7 7.0 0.00 0.00 0.00 42 1015.8
20260504140452 80 129 1.7 7.0 0.00 0.00 0.00 42 1015.8
20260504130448 82 223 1.7 5.2 0.00 0.00 0.00 38 1016.3
20260504110454 77 68 0.0 2.6 0.00 0.00 0.00 46 1017.4
20260504100516 74 237 0.9 3.5 0.00 0.00 0.00 49 1018.0
20260504081954 69 57 1.7 3.5 0.00 0.00 0.00 59 1018.2
20260504081441 69 44 0.0 3.5 0.00 0.00 0.00 58 1018.2
20260504080932 69 43 0.9 3.5 0.00 0.00 0.00 59 1018.3
20260504080447 69 34 1.7 3.5 0.00 0.00 0.00 58 1018.3
20260504050450 57 46 0.0 0.0 0.00 0.00 0.00 78 1017.4
20260504045940 57 46 0.0 0.0 0.00 0.00 0.00 78 1017.4
20260504045437 57 46 0.0 0.9 0.00 0.00 0.00 79 1017.4
20260504044947 57 46 0.0 1.7 0.00 0.00 0.00 79 1017.4
20260504044443 57 49 0.9 1.7 0.00 0.00 0.00 79 1017.3
20260504043931 56 49 0.0 1.7 0.00 0.00 0.00 80 1017.4
20260504043446 56 49 0.0 1.7 0.00 0.00 0.00 80 1017.3
20260504042933 56 49 0.0 0.0 0.00 0.00 0.00 80 1017.3
20260504042429 56 49 0.0 0.0 0.00 0.00 0.00 80 1017.2
20260504041946 56 49 0.0 0.0 0.00 0.00 0.00 80 1017.2
20260504041434 56 49 0.0 0.0 0.00 0.00 0.00 80 1017.2
20260504040930 56 49 0.0 0.0 0.00 0.00 0.00 80 1017.1
20260504040439 56 49 0.0 0.0 0.00 0.00 0.00 80 1017.0
20260504035936 56 49 0.0 0.0 0.00 0.00 0.00 81 1017.0
20260504035451 56 49 0.0 0.0 0.00 0.00 0.00 81 1017.0
20260504034938 56 49 0.0 0.0 0.00 0.00 0.00 81 1017.0
20260504034434 56 49 0.0 0.0 0.00 0.00 0.00 80 1017.0
20260504033943 56 49 0.0 0.0 0.00 0.00 0.00 80 1017.0
20260504033441 56 49 0.0 0.0 0.00 0.00 0.00 80 1017.0
20260504032930 57 49 0.0 1.7 0.00 0.00 0.00 80 1017.0
20260504032445 57 49 0.9 0.9 0.00 0.00 0.00 79 1017.0
20260504032002 57 49 0.0 0.0 0.00 0.00 0.00 79 1017.1
20260504031429 57 49 0.0 0.0 0.00 0.00 0.00 79 1017.0
20260504031005 57 49 0.0 0.0 0.00 0.00 0.00 78 1017.0
20260504030440 58 49 0.0 0.0 0.00 0.00 0.00 78 1017.0
20260504025931 58 49 0.0 0.0 0.00 0.00 0.00 78 1017.0
20260504025442 58 49 0.0 0.0 0.00 0.00 0.00 78 1017.1
20260504024938 58 49 0.0 0.0 0.00 0.00 0.00 78 1017.1
20260504024453 58 49 0.0 0.0 0.00 0.00 0.00 78 1017.1
20260504024000 58 49 0.0 0.0 0.00 0.00 0.00 78 1017.2
20260504023457 58 49 0.0 0.0 0.00 0.00 0.00 78 1017.2
20260504022932 58 49 0.0 0.0 0.00 0.00 0.00 78 1017.2
20260504022450 58 49 0.0 0.0 0.00 0.00 0.00 78 1017.2
20260504021941 58 49 0.0 0.0 0.00 0.00 0.00 78 1017.2
20260504021429 58 49 0.0 0.0 0.00 0.00 0.00 78 1017.3
20260504020934 58 49 0.0 0.0 0.00 0.00 0.00 78 1017.2
20260504020450 58 49 0.0 0.0 0.00 0.00 0.00 78 1017.2
20260504015940 58 49 0.0 0.0 0.00 0.00 0.00 78 1017.2
20260504015435 58 49 0.0 0.0 0.00 0.00 0.00 78 1017.2
20260504015009 58 49 0.0 0.0 0.00 0.00 0.00 79 1017.2
20260504014438 58 49 0.0 0.0 0.00 0.00 0.00 79 1017.2
20260504013932 58 49 0.0 0.0 0.00 0.00 0.00 79 1017.1
20260504013442 58 49 0.0 0.0 0.00 0.00 0.00 79 1017.1
20260504012939 58 49 0.0 0.0 0.00 0.00 0.00 79 1017.2
20260504012450 58 49 0.0 0.0 0.00 0.00 0.00 79 1017.2
20260504011938 58 49 0.0 0.0 0.00 0.00 0.00 80 1017.1
20260504011455 58 49 0.0 0.0 0.00 0.00 0.00 80 1017.1
20260504010949 59 49 0.0 0.0 0.00 0.00 0.00 80 1017.2
20260504010459 59 49 0.0 0.0 0.00 0.00 0.00 80 1017.1
20260504005931 59 49 0.0 0.0 0.00 0.00 0.00 80 1017.2
20260504005447 59 49 0.0 0.0 0.00 0.00 0.00 80 1017.2
20260504004935 59 49 0.0 0.0 0.00 0.00 0.00 80 1017.2
20260504004451 59 49 0.0 0.0 0.00 0.00 0.00 80 1017.3
20260504004002 59 49 0.0 0.0 0.00 0.00 0.00 80 1017.2
20260504003457 59 49 0.0 0.9 0.00 0.00 0.00 80 1017.3
20260504002951 59 49 0.0 0.9 0.00 0.00 0.00 80 1017.3
20260504002437 59 49 0.0 0.9 0.00 0.00 0.00 80 1017.3
20260504001933 59 49 0.0 0.9 0.00 0.00 0.00 80 1017.3
20260504001446 59 49 0.0 0.9 0.00 0.00 0.00 80 1017.4
20260504000936 59 49 0.0 0.9 0.00 0.00 0.00 80 1017.4
20260504000431 59 49 0.0 0.0 0.00 0.00 0.00 80 1017.4
20260503235937 59 49 0.0 0.0 0.00 0.00 0.00 79 1017.4
20260503235431 59 49 0.0 0.0 0.00 0.00 0.00 79 1017.5
20260503234934 59 49 0.0 0.0 0.00 0.00 0.00 79 1017.5
20260503234429 60 49 0.0 0.0 0.00 0.00 0.00 79 1017.5
20260503233944 60 49 0.0 0.0 0.00 0.00 0.00 78 1017.5
20260503233432 60 49 0.0 0.0 0.00 0.00 0.00 78 1017.5
20260503232929 60 49 0.0 0.0 0.00 0.00 0.00 78 1017.5
20260503232439 60 49 0.0 0.0 0.00 0.00 0.00 78 1017.5
20260503231937 60 49 0.0 0.0 0.00 0.00 0.00 78 1017.6
20260503231454 60 49 0.0 0.0 0.00 0.00 0.00 79 1017.6
20260503230939 60 49 0.0 0.9 0.00 0.00 0.00 78 1017.5
20260503230454 60 49 0.0 0.9 0.00 0.00 0.00 78 1017.6
20260503225944 60 49 0.0 0.0 0.00 0.00 0.00 78 1017.6
20260503225439 60 49 0.0 0.0 0.00 0.00 0.00 78 1017.7
20260503224948 60 49 0.0 0.0 0.00 0.00 0.00 78 1017.6
20260503224504 60 49 0.0 0.0 0.00 0.00 0.00 78 1017.7
20260503224000 60 49 0.0 0.0 0.00 0.00 0.00 78 1017.7
20260503223434 61 49 0.0 0.9 0.00 0.00 0.00 78 1017.7
20260503222945 61 49 0.0 0.9 0.00 0.00 0.00 78 1017.7
20260503222439 61 49 0.0 0.0 0.00 0.00 0.00 77 1017.7
20260503221955 61 49 0.0 0.0 0.00 0.00 0.00 77 1017.7
20260503221503 61 49 0.0 0.0 0.00 0.00 0.00 77 1017.7
20260503220940 61 49 0.0 0.0 0.00 0.00 0.00 77 1017.6
20260503220457 61 49 0.0 0.0 0.00 0.00 0.00 77 1017.6
20260503215942 61 49 0.0 0.0 0.00 0.00 0.00 77 1017.6
20260503215438 62 49 0.0 0.0 0.00 0.00 0.00 76 1017.6
20260503214947 62 49 0.0 1.7 0.00 0.00 0.00 76 1017.6
20260503214435 62 49 0.0 1.7 0.00 0.00 0.00 76 1017.5
20260503213930 62 52 0.9 1.7 0.00 0.00 0.00 75 1017.5
20260503213444 62 30 0.0 3.5 0.00 0.00 0.00 74 1017.5
20260503212952 63 30 0.9 3.5 0.00 0.00 0.00 74 1017.6
20260503212447 63 60 1.7 2.6 0.00 0.00 0.00 73 1017.5
20260503211942 64 53 1.7 2.6 0.00 0.00 0.00 71 1017.5
20260503211432 64 94 0.9 1.7 0.00 0.00 0.00 70 1017.5
20260503210948 64 94 0.0 0.9 0.00 0.00 0.00 70 1017.4
20260503210444 65 94 0.0 1.7 0.00 0.00 0.00 69 1017.4
20260503205940 65 94 0.9 2.6 0.00 0.00 0.00 69 1017.4
20260503205447 65 94 0.0 3.5 0.00 0.00 0.00 68 1017.4
20260503204942 65 94 0.9 3.5 0.00 0.00 0.00 68 1017.3
20260503204431 65 140 1.7 2.6 0.00 0.00 0.00 68 1017.3
20260503203928 65 140 0.9 2.6 0.00 0.00 0.00 68 1017.3
20260503203436 66 144 0.0 0.9 0.00 0.00 0.00 67 1017.3
20260503202932 66 145 0.0 0.9 0.00 0.00 0.00 66 1017.3
20260503202448 66 145 0.0 1.7 0.00 0.00 0.00 65 1017.3
20260503201937 66 145 0.9 2.6 0.00 0.00 0.00 65 1017.2
20260503201432 67 144 0.9 3.5 0.00 0.00 0.00 65 1017.1
20260503200941 67 133 0.9 3.5 0.00 0.00 0.00 65 1017.2
20260503200436 67 153 1.7 4.3 0.00 0.00 0.00 64 1017.1
20260503195947 67 126 1.7 7.0 0.00 0.00 0.00 64 1017.1
20260503195436 67 134 1.7 5.2 0.00 0.00 0.00 64 1017.1
20260503195007 67 135 1.7 6.1 0.00 0.00 0.00 64 1017.1
20260503194442 68 124 1.7 6.1 0.00 0.00 0.00 63 1017.0
20260503193930 68 136 1.7 7.0 0.00 0.00 0.00 63 1017.0
20260503193511 68 138 1.7 7.0 0.00 0.00 0.00 63 1016.9
20260503192938 68 140 1.7 7.0 0.00 0.00 0.00 63 1016.9
20260503192432 68 147 2.6 7.0 0.00 0.00 0.00 63 1016.9
20260503191947 69 148 3.5 7.0 0.00 0.00 0.00 63 1016.9
20260503191441 69 143 3.5 7.0 0.00 0.00 0.00 63 1016.9
20260503190930 69 173 2.6 7.0 0.00 0.00 0.00 63 1016.9
20260503190445 69 151 1.7 5.2 0.00 0.00 0.00 62 1016.8
20260503185942 70 155 1.7 6.1 0.00 0.00 0.00 62 1016.7
20260503185428 70 152 2.6 7.8 0.00 0.00 0.00 61 1016.7
20260503184943 70 118 1.7 7.8 0.00 0.00 0.00 60 1016.6
20260503184428 70 145 2.6 8.7 0.00 0.00 0.00 60 1016.6
20260503183942 71 132 2.6 8.7 0.00 0.00 0.00 59 1016.5
20260503183438 71 113 1.7 6.1 0.00 0.00 0.00 58 1016.5
20260503182945 71 149 3.5 6.1 0.00 0.00 0.00 57 1016.5
20260503182434 72 125 1.7 7.0 0.00 0.00 0.00 56 1016.4
20260503181951 72 136 3.5 7.0 0.00 0.00 0.00 55 1016.4
20260503181440 72 167 1.7 7.0 0.00 0.00 0.00 54 1016.4
20260503180937 72 145 2.6 6.1 0.00 0.00 0.00 53 1016.4
20260503180454 73 119 0.9 6.1 0.00 0.00 0.00 53 1016.3
20260503175940 73 134 2.6 6.1 0.00 0.00 0.00 52 1016.3
20260503175435 73 138 1.7 6.1 0.00 0.00 0.00 52 1016.3
20260503174954 73 146 1.7 7.0 0.00 0.00 0.00 51 1016.4
20260503174443 74 143 1.7 7.0 0.00 0.00 0.00 51 1016.3
20260503173931 74 133 1.7 7.0 0.00 0.00 0.00 50 1016.3
20260503173448 74 135 1.7 7.0 0.00 0.00 0.00 49 1016.3
20260503172944 74 103 2.6 7.8 0.00 0.00 0.00 49 1016.1
20260503172432 75 68 3.5 10.4 0.00 0.00 0.00 48 1016.2
20260503171950 75 138 5.2 10.4 0.00 0.00 0.00 48 1016.2
20260503171445 75 85 4.3 10.4 0.00 0.00 0.00 47 1016.2
20260503170934 76 130 1.7 9.6 0.00 0.00 0.00 47 1016.1
20260503170444 76 153 3.5 9.6 0.00 0.00 0.00 46 1016.0